GW0409 Weather Reports


Display with metric or nautical units.
time (UTC)temp
F
wind
direction
speed
MPH
gust
MPH
rain 1hr
in
rain 24hr
in
rain mn
in
humidity
%
barometer
mb
20260504021019 71 18 2.0 5.0 0.00 0.00 0.00 32 1013.3
20260504020018 71 67 2.0 8.0 0.00 0.00 0.00 32 1013.5
20260504015019 71 74 3.0 6.0 0.00 0.00 0.00 32 1013.5
20260504014019 71 59 4.0 8.0 0.00 0.00 0.00 32 1013.6
20260504013021 71 67 3.0 8.0 0.00 0.00 0.00 32 1013.6
20260504012019 71 334 3.0 10.0 0.00 0.00 0.00 32 1013.7
20260504011020 71 29 3.0 6.0 0.00 0.00 0.00 32 1013.8
20260504010020 71 58 3.0 8.0 0.00 0.00 0.00 32 1013.9
20260504005017 71 57 4.0 9.0 0.00 0.00 0.00 32 1013.9
20260504004017 72 39 2.0 8.0 0.00 0.00 0.00 32 1014.0
20260504003017 72 33 3.0 9.0 0.00 0.00 0.00 32 1014.0
20260504002038 72 64 3.0 8.0 0.00 0.00 0.00 33 1014.1
20260504001018 72 298 3.0 11.0 0.00 0.00 0.00 33 1014.1
20260504000018 72 333 3.0 10.0 0.00 0.00 0.00 33 1014.1
20260503235018 71 249 3.0 7.0 0.00 0.00 0.00 33 1014.2
20260503234019 71 0.0 0.0 0.00 0.00 0.00 34 1014.4
20260503233018 71 325 2.0 6.0 0.00 0.00 0.00 33 1014.5
20260503232040 71 79 2.0 5.0 0.00 0.00 0.00 32 1014.6
20260503231019 70 236 2.0 6.0 0.00 0.00 0.00 31 1014.7
20260503230019 70 318 4.0 9.0 0.00 0.00 0.00 30 1014.9
20260503225043 70 0.0 0.0 0.00 0.00 0.00 31 1015.0
20260503224019 69 300 3.0 8.0 0.00 0.00 0.00 33 1015.1
20260503223016 69 254 3.0 8.0 0.00 0.00 0.00 34 1015.2
20260503222017 70 304 4.0 10.0 0.00 0.00 0.00 34 1015.2
20260503221020 70 311 3.0 9.0 0.00 0.00 0.00 34 1015.3
20260503220022 70 345 3.0 8.0 0.00 0.00 0.00 34 1015.5
20260503215017 70 338 3.0 12.0 0.00 0.00 0.00 35 1015.6
20260503214019 69 321 3.0 8.0 0.00 0.00 0.00 35 1015.7
20260503213017 69 360 3.0 9.0 0.00 0.00 0.00 36 1015.8
20260503212040 69 355 3.0 7.0 0.00 0.00 0.00 36 1015.9
20260503211018 68 283 5.0 13.0 0.00 0.00 0.00 37 1016.1
20260503210018 68 1 5.0 11.0 0.00 0.00 0.00 39 1016.2
20260503205018 67 297 3.0 10.0 0.00 0.00 0.00 39 1016.2
20260503204038 67 307 3.0 9.0 0.00 0.00 0.00 39 1016.4
20260503203019 66 13 3.0 9.0 0.00 0.00 0.00 41 1016.5
20260503202018 66 13 4.0 8.0 0.00 0.00 0.00 41 1016.6
20260503201019 66 233 3.0 6.0 0.00 0.00 0.00 44 1016.7
20260503200019 65 289 2.0 6.0 0.00 0.00 0.00 41 1016.7
20260503195019 64 262 4.0 8.0 0.00 0.00 0.00 44 1016.8
20260503194020 64 207 3.0 6.0 0.00 0.00 0.00 47 1016.9
20260503193058 63 225 3.0 7.0 0.00 0.00 0.00 45 1017.0
20260503192018 63 225 3.0 8.0 0.00 0.00 0.00 46 1017.0
20260503191021 62 7 3.0 6.0 0.00 0.00 0.00 47 1017.1
20260503190020 61 350 3.0 7.0 0.00 0.00 0.00 48 1017.4
20260503185019 61 249 4.0 9.0 0.00 0.00 0.00 50 1017.3
20260503184019 61 230 2.0 6.0 0.00 0.00 0.00 51 1017.5
20260503183038 61 359 3.0 9.0 0.00 0.00 0.00 50 1017.5
20260503182018 60 314 2.0 7.0 0.00 0.00 0.00 51 1017.6
20260503181040 60 351 2.0 8.0 0.00 0.00 0.00 52 1017.7
20260503180020 59 301 2.0 8.0 0.00 0.00 0.00 55 1017.6
20260503175040 58 338 3.0 6.0 0.00 0.00 0.00 57 1017.8
20260503174039 58 300 3.0 7.0 0.00 0.00 0.00 58 1017.9
20260503173019 57 291 3.0 5.0 0.00 0.00 0.00 58 1017.9
20260503172016 57 350 3.0 7.0 0.00 0.00 0.00 60 1018.0
20260503171019 56 316 3.0 7.0 0.00 0.00 0.00 62 1018.1
20260503150959 51 238 2.0 4.0 0.00 0.00 0.00 75 1018.0
20260503131017 47 219 1.0 3.0 0.00 0.00 0.00 79 1017.7
20260503081020 55 0.0 0.0 0.00 0.00 0.00 58 1016.5
20260503072020 57 339 3.0 4.0 0.00 0.00 0.00 53 1016.3
20260503071017 57 336 3.0 4.0 0.00 0.00 0.00 53 1016.3
20260503055019 59 345 1.0 3.0 0.00 0.00 0.00 48 1016.2
20260503054019 59 0.0 0.0 0.00 0.00 0.00 47 1016.1
20260503053019 60 351 1.0 3.0 0.00 0.00 0.00 47 1016.1
20260503052019 60 353 1.0 3.0 0.00 0.00 0.00 45 1016.1
20260503051019 60 345 0.0 3.0 0.00 0.00 0.00 45 1016.1
20260503050019 60 3 1.0 4.0 0.00 0.00 0.00 45 1016.0
20260503045017 60 359 1.0 3.0 0.00 0.00 0.00 45 1015.9
20260503044021 61 0.0 0.0 0.00 0.00 0.00 44 1015.9
20260503043020 61 0.0 0.0 0.00 0.00 0.00 43 1015.8
20260503042020 62 0.0 0.0 0.00 0.00 0.00 43 1015.7
20260503041017 63 293 0.0 2.0 0.00 0.00 0.00 41 1015.6
20260503040039 63 303 0.0 3.0 0.00 0.00 0.00 40 1015.5
20260503035019 64 194 0.0 3.0 0.00 0.00 0.00 39 1015.4
20260503034038 64 216 1.0 4.0 0.00 0.00 0.00 38 1015.4
20260503033038 65 152 1.0 3.0 0.00 0.00 0.00 36 1015.3
20260503032038 66 261 1.0 4.0 0.00 0.00 0.00 35 1015.3
20260503031018 66 291 0.0 4.0 0.00 0.00 0.00 34 1015.2
20260503030018 67 221 1.0 4.0 0.00 0.00 0.00 33 1015.2
20260503025039 68 288 1.0 5.0 0.00 0.00 0.00 32 1015.2
20260503024019 68 257 2.0 5.0 0.00 0.00 0.00 32 1015.1
20260503023039 69 317 1.0 4.0 0.00 0.00 0.00 31 1015.2
20260503022019 70 246 1.0 5.0 0.00 0.00 0.00 30 1015.2